Location: Arbon
(43.0005°N, 0.7472°E)
Time: 11:08:00
(UTC+00:00)

CZ-4 R/B - Pass Details

Date: 22 April 2026
Orbit: 490 x 537 km, 97.5° (Epoch: 15 May)

Event Time Altitude Azimuth Distance (km) Brightness Sun altitude
Exits shadow 20:54:10 - 214° (SW) 2,167 4.3 -20.8°
Reaches altitude 10° 20:55:39 10° 229° (SW) 1,729 3.9 -21.0°
Maximum altitude 20:57:57 16° 267° (W) 1,408 3.9 -21.3°
Drops below altitude 10° 21:00:14 10° 306° (NW) 1,722 5.0 -21.6°
Sets 21:03:01 0° 329° (NNW) 2,603 6.1 -22.0°
